Torna al catalogo

STARLINK-30801

AttivoComunicazioniVLEO
NORAD 58184·PAYLOAD·🇺🇸 United States

Lanciato Oct 30, 2023 da Cape Canaveral Space Force Station

Loading…

Prossimi Passaggi (prossime 24 ore)

TLE

AggiornatoSource: CelesTrak SupGP

Epoca: Sep 15, 2026, 01:56 UTC

1 58184C 23167K   26258.08104167  .00046058  00000+0  16680-2 0  2588
2 58184  42.9992 154.2210 0001401 261.7512 158.3449 15.27560505    19

Traccia STARLINK-30801 in tempo reale con AllMySat

Download on the App Store